www.pogodaiklimat.ru

Погода и климат >> Архив погоды >> Филиппины >> Балер Радар


ПОГОДА в Балер Радар

  • Прогноз погоды в Балер Радар
  • Монитор погоды в Балер Радар

АРХИВ ПОГОДЫ в Балер Радар

Время (UTC), дата Ветер
(напр.,м/с)
 
Видим.   Явления Облачность Т
(С)
Тd
(С)
f
(%)
Тe
(С)
Тes
(С)
Комфортность P
(гПа)
Po
(гПа)
Тmin
(С)
Tmax
(С)
R
(мм)
R24
(мм)
S
(см)
00 16.04 С 2 20 км 3/3 540 м
[Cu med, cong]
+25.5 +23.5 89 +35 +39 очень
душно
1014.4 994.0 +23.2 0.3
03 16.04 штиль 0 30 км 4/3 540 м
[Cu med, cong Ac cuf]
+30.0 +28.1 90 +50 +68 опасность
перегрева
1014.3 994.0
06 16.04 штиль 0 30 км 6/3 540 м
[Cu med, cong Ac trans]
+30.2 +26.0 78 +45 +57 опасность
перегрева
1011.4 991.2
09 16.04 ЮВ 2 30 км 1/1 540 м
[Cu med, cong]
+27.8 +25.3 86 +40 +42 очень
душно
1010.3 990.0
12 16.04 Ю 2 15 км 1/1 540 м
[Cu med, cong]
+26.5 +23.5 84 +36 +36 очень
душно
1012.4 992.0 +31.8
15 16.04 штиль 0 15 км 8/3 540 м
[Cu med, cong Ac As]
+26.0 +23.7 87 +35 +35 очень
душно
1013.7 993.4
18 16.04 штиль 0 15 км 6/3 540 м
[Cu med, cong Ac As]
+25.5 +23.8 90 +35 +35 очень
душно
1012.2 992.0
21 16.04 штиль 0 15 км 3/3 540 м
[Cu med, cong]
+25.2 +23.6 91 +34 +34 очень
душно
1011.4 991.1
00 17.04 Ю 2 20 км 8/1 540 м
[Cu med, cong Cs]
+27.0 +25.3 90 +39 +44 очень
душно
1012.6 992.3 +24.3
03 17.04 Ю 4 30 км 8/1 600 м
[Cu hum Cs]
+30.0 +26.8 83 +47 +58 опасность
перегрева
1012.2 992.0
06 17.04 Ю 3 30 км 8/1 600 м
[Cu hum Cs]
+30.0 +27.3 85 +48 +58 опасность
перегрева
1010.2 990.0
09 17.04 ЮВ 2 20 км 9/1 540 м
[Cu med, cong Ac trans Cs]
+27.9 +25.8 88 +41 +42 опасность
перегрева
1009.4 989.1
12 17.04 З 2 15 км 9/3 540 м
[Cu med, cong Ac trans Cs]
+27.5 +24.5 84 +39 +39 очень
душно
1010.5 990.2 +31.0
15 17.04 З 1 12 км 9/3 540 м
[Cu med, cong Ac As]
+26.9 +25.1 90 +39 +39 очень
душно
1012.1 991.9
18 17.04 ЮВ 2 12 км 9/3 540 м
[Cu med, cong Ac As]
+25.2 +24.7 97 +35 +35 очень
душно
1010.2 990.0
21 17.04 штиль 0 10 км слаб. ливневой дождь {гроза} 10/4 480 м
[Cu Sc Ac As]
+24.8 +24.5 98 +35 +35 очень
душно
1011.4 991.0 43
00 18.04 С 2 15 км гроза без осадков {ливн. осадки} 10/6 480 м
[Cb cap Ac As]
+24.8 +24.3 97 +34 +35 очень
душно
1013.4 993.0 +23.1 44
03 18.04 С 3 15 км осадки на расстоянии {гроза} 10/4 500 м
[Cu Sc Ac As]
+27.4 +25.3 88 +40 +43 очень
душно
1013.3 993.0
06 18.04 ЮВ 3 25 км {гроза} 9/3 540 м
[Cu med, cong Ac As Cs]
+29.5 +27.3 88 +47 +53 опасность
перегрева
1011.1 990.8
09 18.04 штиль 0 25 км 8/3 540 м
[Cu med, cong Ac As]
+28.3 +25.5 85 +42 +43 опасность
перегрева
1010.4 990.1
12 18.04 штиль 0 15 км 9/3 540 м
[Cu med, cong Ac As]
+26.8 +24.6 88 +38 +38 очень
душно
1011.4 991.0 +30.6
15 18.04 Ю 2 10 км в посл. час ливневой дождь 10/4 500 м
[Cu med, cong Ac As]
+26.1 +24.8 93 +37 +37 очень
душно
1012.3 992.0 0.2
18 18.04 С 3 10 км {ливн. осадки} 9/3 500 м
[Cu med, cong Ac As]
+25.2 +24.0 93 +35 +35 очень
душно
1010.5 990.2 0.4
21 18.04 В 4 10 км в посл. час ливневой дождь 10/4 500 м
[Cu med, cong Ac As]
+25.0 +24.3 96 +35 +35 очень
душно
1010.8 990.5 11
00 19.04 Ю 3 30 км {ливн. осадки} 6/3 540 м
[Cu med, cong Ac As]
+27.0 +25.7 93 +40 +43 очень
душно
1012.4 992.1 +24.1 12
03 19.04 Ю 2 30 км 3/3 540 м
[Cu med, cong]
+30.4 +28.5 90 +52 +66 опасность
перегрева
1012.4 992.2
06 19.04 штиль 0 30 км 4/3 540 м
[Cu med, cong Ci fib]
+30.2 +28.3 90 +51 +66 опасность
перегрева
1010.0 989.8
09 19.04 ЮВ 2 30 км 8/3 540 м
[Cu med, cong Cs]
+28.0 +25.5 86 +41 +42 опасность
перегрева
1009.2 988.9
12 19.04 ЮВ 2 18 км 4/3 540 м
[Cu med, cong Ac As]
+26.3 +24.4 89 +37 +37 очень
душно
1010.4 990.1 +31.4
15 19.04 ЮВ 2 18 км 4/3 540 м
[Cu med, cong Ac As]
+25.9 +23.8 88 +35 +35 очень
душно
1011.2 991.0
18 19.04 штиль 0 5000 м слаб. дождь 10/4 450 м
[Sc As op]
+25.9 +24.2 90 +36 +36 очень
душно
1010.5 990.3 3
21 19.04 С 1 15 км {дождь} 8/3 500 м
[Cu med, cong Ac As]
+25.2 +23.6 91 +34 +34 очень
душно
1010.8 990.5 0.4
00 20.04 штиль 0 30 км {дождь} 4/4 540 м
[Cu med, cong]
+27.2 +25.6 91 +40 +46 очень
душно
1012.4 992.1 +24.3 4
03 20.04 ЮВ 3 30 км 4/4 540 м
[Cu med, cong]
+30.0 +27.6 87 +49 +59 опасность
перегрева
1012.2 992.0
06 20.04 ЮВ 3 30 км 1/1 540 м
[Cu med, cong]
+29.6 +26.3 82 +45 +57 опасность
перегрева
1009.1 989.0
09 20.04 ЮВ 1 30 км 1/1 540 м
[Cu med, cong]
+28.0 +25.0 84 +40 +42 очень
душно
1008.9 988.6
12 20.04 штиль 0 20 км 1/1 600 м
[Cu med, cong]
+25.8 +23.4 87 +35 +35 очень
душно
1010.5 990.2 +31.0
15 20.04 штиль 0 20 км 1/1 600 м
[Cu med, cong]
+25.3 +23.6 90 +34 +34 очень
душно
1012.4 992.0
18 20.04 штиль 0 20 км 1/1 600 м
[Cu med, cong]
+25.0 +23.6 92 +34 +34 очень
душно
1012.1 991.8
21 20.04 штиль 0 20 км 1/1 600 м
[Cu med, cong]
+25.0 +23.6 92 +34 +34 очень
душно
1010.2 990.0
00 21.04 штиль 0 30 км 1/1 600 м
[Cu med, cong]
+26.2 +24.6 91 +37 +45 очень
душно
1011.9 991.6 +23.3
03 21.04 штиль 0 30 км 1/1 600 м
[Cu med, cong]
+30.1 +27.4 86 +49 +74 опасность
перегрева
1012.2 992.0
06 21.04 ЮВ 3 30 км 1/1 600 м
[Cu med, cong]
+30.2 +27.4 85 +48 +61 опасность
перегрева
1010.2 990.0
09 21.04 штиль 0 30 км 6/1 600 м
[Cu med, cong Ac trans]
+28.4 +25.3 83 +41 +43 опасность
перегрева
1009.2 989.0
12 21.04 штиль 0 12 км 8/1 540 м
[Cu med, cong Ac As]
+27.0 +25.0 89 +39 +39 очень
душно
1011.3 991.0 +31.5
15 21.04 штиль 0 10 км 10/1 540 м
[Cu med, cong Ac As]
+26.4 +24.5 89 +37 +37 очень
душно
1012.3 992.0
18 21.04 штиль 0 10 км в посл. час ливневой дождь 10/4 500 м
[Cu med, cong Ac As]
+25.2 +24.3 95 +35 +35 очень
душно
1011.2 991.0 3
21 21.04 штиль 0 15 км {ливн. осадки} 3/3 540 м
[Cu med, cong]
+25.0 +23.9 94 +34 +34 очень
душно
1010.6 990.3 0.5
00 22.04 штиль 0 25 км осадки на расстоянии {ливн. осадки} 10/4 500 м
[Cu med, cong Ac As]
+26.2 +24.6 91 +37 +39 очень
душно
1012.4 992.0 +24.5 3
03 22.04 штиль 0 25 км осадки на расстоянии {ливн. осадки} 10/4 500 м
[Cu med, cong Ac As]
+26.8 +25.7 94 +40 +45 очень
душно
1012.4 992.2 0.5
06 22.04 ЮВ 3 20 км {ливн. осадки} 9/4 540 м
[Cu med, cong Ac trans]
+28.8 +28.0 95 +47 +52 опасность
перегрева
1010.8 990.5 0.5
09 22.04 ЮВ 3 18 км 9/4 540 м
[Cu med, cong Ac As]
+27.2 +25.1 88 +39 +40 очень
душно
1010.4 990.1
12 22.04 Ю 2 15 км 3/3 540 м
[Cu med, cong]
+25.9 +23.4 86 +35 +35 очень
душно
1011.7 991.3 +30.0
15 22.04 СЗ 1 15 км 3/3 540 м
[Cu med, cong]
+25.4 +24.1 93 +35 +35 очень
душно
1013.3 992.9
18 22.04 штиль 0 15 км 3/3 540 м
[Cu med, cong]
+25.0 +23.6 92 +34 +34 очень
душно
1012.3 992.0
21 22.04 СЗ 2 15 км 3/3 540 м
[Cu med, cong]
+24.5 +23.0 91 +32 +32 очень
душно
1012.9 992.5

 

Местоположение метеостанции Балер Радар (Филиппины): широта 15.75 долгота 121.63 высота над уровнем моря 175 м.

В архиве по умолчанию представлена погода в Балер Радар за последнюю неделю. Архивные данные за месяц целиком и за предыдущие месяцы, начиная с января 2011 года, Вы можете получить, выбрав интересующий диапазон дат из раскрывающегося списка и нажав кнопку "Ввод!".


*Определитесь, кто Вы:
робот инопланетянин человек

Внимание! Время в таблицах - всемирное. Для получения местного времени необходимо прибавить поправку, которая равна 8 ч.

Смотрите также архив погоды в соседних городах и на ближайших метеорологических станциях:

Погода в Кабанатуане (Филиппины) (78 км)
Погода в Касигуране (Филиппины) (78 км)
Погода в Инфанте (Филиппины) (111 км)
Погода на Базе ВВС Clark (Филиппины) (132 км)
Погода в Багио (Филиппины) (133 км)
Погода в Научном саду (Филиппины) (141 км)
Погода в Танае (Филиппины) (142 км)
Погода в Дагупане (Филиппины) (143 км)
Погода в Маниле (Филиппины) (148 км)
Погода в Аэропорту Ninoy Aquino (Филиппины) (153 км)

Пояснения к столбцам:

Ветер - указаны скорость ветра в м/с - средняя за 10 мин, порывы в срок и между сроками (в фигурных скобках) и направление, откуда дует ветер: С - северный, СВ - северо-восточный, В - восточный, ЮВ - юго-восточный, Ю - южный, ЮЗ - юго-западный, З - западный, СЗ - северо-западный.
Видимость - горизонтальная дальность видимости в метрах или километрах. При видимости от 1 до 10 км при отсутствии осадков обычно наблюдается дымка, при ухудшении видимости до 1 км и менее - туман. В сухую погоду видимость может ухудшаться дымом, пылью или мглою.
Явления - указаны атмосферные явления, наблюдавшиеся в срок или в последний час перед сроком; фигурными скобками обозначены явления, наблюдавшиеся между сроками (за 1-3 часа до срока); квадратными скобками обозначены град или гололедные отложения с указанием их диаметра в мм.
Облачность - указаны через наклонную черту общая и нижняя облачность в баллах и высота нижней границы облаков в метрах; квадратными скобками обозначены формы облаков: Ci - перистые, Cs - перисто-слоистые, Cc - перисто-кучевые, Ac - высококучевые, As - высокослоистые, Sc - слоисто-кучевые, Ns - слоисто-дождевые, Cu - кучевые, Cb - кучево-дождевые. Подробнее классификацию облаков см. в Атласе облаков (PDF).
T - Температура воздуха - температура, измеренная на высоте 2 м над землей.
Td - Температура точки росы - температура, при понижении до которой содержащийся в воздухе водяной пар достигнет насыщения.
f - Относительная влажность воздуха - влажноcть воздуха, измеренная на высоте 2 м над землей.
Te - Эффективная температура - температура, которую ощущает одетый по сезону человек в тени. Характеристика душности погоды. При расчете учитывается влияние влажности воздуха и скорости ветра на теплоощущения человека.
Tes - Эффективная температура на солнце - температура, которую ощущает человек, с поправкой на солнечный нагрев. Характеристика знойности погоды. Зависит от высоты солнца над горизонтом, облачности и скорости ветра. Ночью, в пасмурную погоду, а также при ветре 12 м/с и более поправка равна нулю.
P - Атмосферное давление - приведенное к уровню моря атмосферное давление.
Po - Атмосферное давление - измеренное на уровне метеостанции атмосферное давление.
Tmin - Минимальная температура - минимум температуры воздуха на высоте 2 м над землей.
Tmax - Максимальная температура - максимум температуры воздуха на высоте 2 м над землей.
R - Количество осадков - Количество выпавших осадков за период времени, мм. При наведении курсора мыши на число - период времени, за который выпало указанное количество осадков.
R24 - Количество осадков - Количество выпавших осадков за 24 часа, мм.
S - Снежный покров - Высота снежного покрова, см. При наведении курсора мыши на число - состояние снежного покрова и степень покрытия местности в баллах.